{"data":{"norad_id":48329,"intl_designator":"2021-036BF","name":"STARLINK-2510","alt_names":[],"object_type":"PAYLOAD","status":"ACTIVE","operator":null,"country":"US","launch_date":"2021-04-29","launch_site_code":"AFETR","launch_vehicle":null,"mission":null,"orbit_class":"UNKNOWN","rcs_meters":null,"size_class":null,"mass_kg":null,"dimensions":null,"purposes":["comms"],"wikipedia_slug":null,"has_3d_model":false,"image_url":null,"decayed_at":null,"tle_current":{"epoch":"2026-09-19T13:51:42.468768Z","epoch_age_seconds":98021,"freshness":"FRESH","line1":"1 48329U 21036BF  26262.57757487  .00001113  00000+0  47625-4 0  9999","line2":"2 48329  53.1605 278.6665 0001586  66.5923 293.5245 15.31709222297751","mean_motion":15.31709222,"eccentricity":0.0001586,"inclination_deg":53.1605,"raan_deg":278.6665,"arg_perigee_deg":66.5923,"mean_anomaly_deg":293.5245,"bstar":4.7625e-5,"rev_number":29775,"period_min":94.012621933538,"perigee_km":469.62627752995,"apogee_km":471.79873259295,"semimajor_km":6848.8495050614,"source":"CELESTRAK","updated_at":"2026-09-20T09:00:38.937494Z"}}}